Hourly Weather Roundup
Issued by NWS Central Illinois

Home | Current Version | Previous Version | Text Only | Print | Product List | Glossary On
Versions: 1 2 3 4 5 6 7 8 9 10 11 12 13 14 15 16 17 18 19 20 21 22 23 24 25 26 27 28 29 30 31 32 33 34 35 36 37 38 39 40 41 42 43 44 45 46 47 48 49 50
000
NZUS43 KILX 192010
HWRILX

Area Weather Roundup
National Weather Service Lincoln IL
300 PM CDT SAT AUG 19 2017

NOTE:  "FAIR" indicates few or no clouds below 12,000 feet, with
       no sigificant weather and/or obstructions to visibility.


CITY           SKY/WX    TMP DP  RH WIND       PRES   REMARKS
Bloomington    SUNNY     82  62  50 VRB6      29.98S HX  83
Champaign      MOSUNNY   85  63  47 S3        29.95F HX  86
Danville       SUNNY     83  65  55 CALM      29.93S HX  85
Decatur        SUNNY     85  68  56 VRB5      29.94F HX  88
Effingham      MOSUNNY   87  71  57 S3        29.95F HX  92
Flora          MOSUNNY   86  73  64 S5        29.94F HX  92
Galesburg      NOT AVBL
Jacksonville   MOSUNNY   85  66  53 NW3       29.94S HX  87
Lacon          SUNNY     82  59  45 E5        29.96S HX  82
Lawrenceville  MOSUNNY   91  67  44 SW8       29.94S HX  94
Litchfield     PTSUNNY   87  69  55 W6        29.94F HX  91
$$


CITY           SKY/WX    TMP DP  RH WIND       PRES   REMARKS
Lincoln        SUNNY     85  69  57 E3        29.95S HX  89
Macomb         SUNNY     83  66  56 SE3       29.98S HX  85
Mattoon        PTSUNNY   86  70  58 SW9       29.94S HX  90
Mt Carmel AP   MOSUNNY   87  67  51 CALM      29.94S HX  90
Olney-Noble AP SUNNY     87  68  52 S3        29.94F HX  91
Paris AP       PTSUNNY   88  69  53 CALM      29.94F HX  92
Peoria         SUNNY     86  58  38 CALM      29.95F HX  85
Pontiac        SUNNY     82  60  46 CALM      29.97S HX  82
Rantoul        SUNNY     86  64  47 SW3       29.95F HX  87
Robinson       MOSUNNY   85  71  62 CALM      29.93F HX  89
Springfield    SUNNY     88  70  55 CALM      29.94F HX  93
Taylorville    SUNNY     85  70  60 W6        29.95S HX  90
$$

...REGIONAL REPORTS...


CITY           SKY/WX    TMP DP  RH WIND       PRES   REMARKS
Chicago O`Hare MOSUNNY   83  54  36 VRB3      29.94F HX  82
Kankakee       SUNNY     81  60  48 SE3       29.97S HX  82
Moline         SUNNY     82  61  48 S6        29.95F HX  83
Mount Sterling SUNNY     84  67  55 CALM      29.94F HX  87
Mount Vernon     N/A     88  71  57 W6        29.94F HX  94
Pittsfield     MOSUNNY   87  68  51 SW3       29.95F HX  90
Quincy         SUNNY     86  65  49 CALM      29.93F HX  88
Rockford       MOSUNNY   81  59  47 W5        29.97F HX  81
$$


CITY           SKY/WX    TMP DP  RH WIND       PRES   REMARKS
Burlington     SUNNY     82  67  60 SE6       29.95F HX  84
Cedar Rapids   MOSUNNY   80  61  52 S6        29.96S HX  81
Des Moines     MOSUNNY   82  62  50 CALM      29.94F HX  83
Kirksville     SUNNY     92  51  24 NW12G18   29.94F HX  89
Ottumwa        SUNNY     87  60  40 VRB3      29.93F HX  87
St Louis       MOSUNNY   89  66  46 VRB3      29.94F HX  91
$$


CITY           SKY/WX    TMP DP  RH WIND       PRES   REMARKS
Terre Haute    MOSUNNY   88  66  48 CALM      29.93F HX  90
Evansville     SUNNY     88  66  48 W3        29.95S HX  90
Indianapolis   MOSUNNY   88  63  43 VRB7      29.93F HX  89
Lafayette      SUNNY     83  61  47 MISG      29.95S HX  83
Madison        MOSUNNY   79  59  50 SW6       29.96S HX  80
Milwaukee      MOSUNNY   82  60  47 W7        29.94F HX  82
$$






USA.gov is the U.S. government's official web portal to all federal, state and local government web resources and services.